Retour au catalogue

NOAA 16 DEB

ActifPO
NORAD 41251·DEBRIS·🇺🇸 United States

Lancé Sep 21, 2000 depuis Vandenberg Space Force Base

Loading…

Prochains Passages (prochaines 24 heures)

TLE

FraisSource: Space-Track

Époque: Sep 12, 2026, 08:45 UTC

1 41251U 00055FB  26255.36493832  .00006192  00000-0  17924-2 0  9994
2 41251  98.9649  40.8240 0039011 226.6721 133.1214 14.44412743554506

Suivez NOAA 16 DEB en temps réel avec AllMySat

Download on the App Store